This is the latest recevied weather packets stored in our database for station/object KC5DAQ-28. If no packets are shown the sender has not sent any weather packets the latest 10 day(s).
| Time | Temp. | Humidity | Pressure | Rain* | Wind** | Luminosity | Snow |
|---|---|---|---|---|---|---|---|
| 1778200862 | 23.89° C | 69% | 1007.9 hPa | 0 mm | - | 19 W/m² | - |
| 1778200804 | 23.89° C | 69% | 1007.9 hPa | 0 mm | - | 19 W/m² | - |
| 1778200743 | 23.89° C | 69% | 1007.8 hPa | 0 mm | - | 19 W/m² | - |
| 1778200684 | 23.89° C | 69% | 1007.8 hPa | 0 mm | - | 21 W/m² | - |
| 1778200625 | 23.89° C | 69% | 1007.8 hPa | 0 mm | - | 21 W/m² | - |
| 1778200563 | 23.89° C | 69% | 1007.8 hPa | 0 mm | - | 19 W/m² | - |
| 1778200504 | 23.89° C | 69% | 1007.8 hPa | 0 mm | - | 19 W/m² | - |
| 1778200443 | 23.89° C | 69% | 1007.9 hPa | 0 mm | - | 19 W/m² | - |
| 1778200383 | 23.89° C | 69% | 1007.7 hPa | 0 mm | - | 19 W/m² | - |
| 1778200323 | 23.89° C | 69% | 1007.8 hPa | 0 mm | - | 21 W/m² | - |
| 1778200262 | 23.89° C | 69% | 1007.8 hPa | 0 mm | - | 21 W/m² | - |
| 1778200203 | 23.89° C | 69% | 1007.8 hPa | 0 mm | - | 21 W/m² | - |
| 1778200143 | 23.89° C | 70% | 1007.7 hPa | 0 mm | - | 30 W/m² | - |
| 1778200084 | 23.89° C | 70% | 1007.7 hPa | 0 mm | - | 30 W/m² | - |
| 1778200023 | 23.89° C | 70% | 1007.7 hPa | 0 mm | - | 30 W/m² | - |
| 1778199963 | 23.89° C | 70% | 1007.7 hPa | 0 mm | - | 32 W/m² | - |
| 1778199905 | 23.89° C | 69% | 1007.8 hPa | 0 mm | - | 33 W/m² | - |
| 1778199844 | 23.89° C | 69% | 1007.8 hPa | 0 mm | - | 33 W/m² | - |
| 1778199783 | 23.89° C | 69% | 1007.8 hPa | 0 mm | - | 33 W/m² | - |
| 1778199724 | 23.89° C | 69% | 1007.9 hPa | 0 mm | - | 33 W/m² | - |
| 1778199662 | 23.89° C | 69% | 1007.8 hPa | 0 mm | - | 32 W/m² | - |
| 1778199604 | 23.89° C | 69% | 1007.7 hPa | 0 mm | - | 33 W/m² | - |
| 1778199543 | 23.89° C | 69% | 1007.8 hPa | 0 mm | - | 35 W/m² | - |
| 1778199483 | 23.89° C | 69% | 1007.7 hPa | 0 mm | - | 39 W/m² | - |
| 1778199422 | 23.89° C | 69% | 1007.7 hPa | 0 mm | - | 37 W/m² | - |
* Rain latest hour (hover to see other rain measurements)
** Current wind speed in m/s (hover to see current wind gust speed)